map of BVB home
Great Circle Mapper logo
BVB - Airport
Location
City:  Boa Vista, Roraima, Brazil
ICAO / IATA:SBBV / BVB

Details
Type:Airport (Aerodrome, Airfield)
Use:Public/Civil, International (customs port of entry)
Latitude:250'47"N (2.846311)
Longitude:6041'24"W (-60.690068)
Datum:WGS 1984
Elevation:276 ft (84 m)
Runways:1
Longest:8858 × 148 ft (2700 × 45 m), paved

Time
Time Zone:UTC-4
Local Time:

Weather
METAR:SBBV 301500Z 07012KT 9999 FEW025 31/21 Q1014
TAF:SBBV 301000Z 3013/0112 07010KT CAVOK TX33/3018Z TN25/0107Z
BECMG 3015 /3017 09010KT SCT040
BECMG 3022/3024 07005KT CAVOK
RMK PEH

Related Locations
Nearby:
Farthest:TTR: 12415 mi / 19981 km
Tana Toraja [Pongtiku], Sulawesi Island, ID

Find:

   beyond  
but within

Other Information
Maps:
NOTAMs:
Links:
Sources:

  
flag of Brazil
flag of Roraima
  

Sectional Chart

Flight Planning
at skyvector.com

Satellite Image

Google Maps Satellite View

 

Copyright © 2004-2014 Karl L. Swartz. All rights reserved.
The Great Circle Mapper name and logo are trademarks of the Great Circle Mapper.
All other trademarks mentioned herein belong to their respective owners.
Please see credits for attibutions and further copyright information.

  Follow gcmap on Facebook Follow gcmap on Twitter

hCard Microformat

Geo Microformat